Cloud_Cover
0 0 5 5 74 70 100 100 80 100 100 15 43 5 76 100 99 82 6 90 44 100 95 96 87 100 100 98 98 100 54 0 9 84 83 72 52 11 95 20 4 0 0 0 0 0 0 0 0 0 0 0 0 1
0 0 30 5 97 80 96 100 100 84 100 5 4 5 5 9 60 100 55 93 76 95 75 94 68 35 100 100 92 38 53 96 99 64 60 85 100 100 98 99 33 40 0 0 0 0 0 0 0 0 0 0 0 0
0 3 65 100 100 100 100 100 100 100 100 12 0 1 5 5 5 11 92 100 77 96 44 18 13 12 6 62 99 94 87 100 95 98 100 96 96 100 48 52 100 10 61 5 4 0 0 0 0 0 0 0 0 0
0 0 17 100 100 100 100 100 100 100 100 84 0 3 0 3 5 5 99 53 79 32 45 33 98 100 100 100 100 100 100 97 92 64 86 86 81 87 100 77 54 91 49 70 42 1 4 2 0 0 0 0 0 0
1 0 0 15 100 100 100 100 100 100 100 100 100 100 100 90 48 22 92 71 68 84 28 60 63 15 30 97 100 100 100 74 98 54 40 78 5 21 100 100 9 71 100 100 100 98 16 21 19 0 0 0 0 0
63 0 0 6 100 100 100 100 100 100 100 100 100 100 100 100 100 100 100 70 90 97 100 60 93 70 57 89 89 84 100 99 100 100 90 33 5 52 100 65 84 76 97 99 100 100 11 5 86 2 0 0 0 0
100 6 0 0 37 100 100 100 100 100 100 100 100 100 100 100 100 100 100 100 100 100 100 73 84 71 18 88 57 36 95 100 100 97 32 60 100 85 100 37 99 90 94 88 84 35 91 21 38 23 0 0 0 0
6 5 3 0 2 88 100 100 100 100 100 100 100 100 100 100 100 100 100 100 100 100 100 100 69 98 62 100 77 100 100 51 58 61 27 62 81 70 59 38 100 100 56 16 6 2 99 54 46 0 0 0 0 0
0 5 3 0 0 6 100 100 100 100 100 100 100 100 100 100 100 100 100 100 100 100 100 100 99 100 100 70 100 100 98 92 35 45 21 51 29 63 0 0 16 85 48 58 100 27 11 4 1 4 12 0 0 0
0 0 0 0 5 5 70 82 48 98 100 100 100 100 100 100 100 100 100 100 100 100 100 100 100 100 100 100 100 100 39 62 99 12 21 100 11 4 40 8 5 5 5 0 4 1 7 22 64 93 6 2 5 0
0 0 1 10 5 5 5 8 28 100 98 100 100 100 100 100 100 100 100 100 100 100 100 100 100 100 100 100 100 100 100 100 89 97 96 42 22 14 7 3 3 1 0 1 0 6 100 73 31 28 64 18 5 17
21 26 9 5 5 5 5 5 37 100 100 100 100 100 100 100 100 100 100 100 100 100 100 100 100 100 100 100 100 100 100 100 100 100 97 100 100 99 25 41 58 5 46 17 27 67 90 100 100 100 84 27 33 5
86 63 32 6 5 5 11 5 98 97 96 100 99 100 100 100 100 100 100 100 100 100 100 100 100 100 100 100 100 100 100 100 100 100 100 100 100 100 100 99 36 61 100 100 100 100 100 100 100 99 100 100 75 28
93 39 34 33 13 83 10 33 45 22 97 100 100 99 80 97 100 100 100 100 100 100 100 100 100 100 100 100 100 100 100 100 100 100 100 100 100 100 100 100 100 100 100 100 100 100 100 100 98 99 94 100 100 100
35 12 0 81 92 36 100 100 71 72 100 61 36 91 100 100 100 100 100 100 100 100 100 100 100 100 100 100 100 100 100 100 100 100 100 100 100 100 100 100 100 100 100 100 100 100 100 100 100 88 96 100 100 100
9 19 9 0 97 5 88 99 100 100 100 100 100 100 100 100 100 100 100 100 100 100 100 100 100 100 100 100 100 100 100 100 100 100 100 100 100 100 100 100 100 100 100 100 100 100 100 100 100 100 100 100 100 100
52 0 0 0 12 95 4 39 100 100 100 67 100 100 100 100 100 100 100 100 100 100 100 100 100 100 100 100 100 100 100 100 100 100 100 100 100 100 100 100 100 100 100 100 100 100 100 100 100 100 100 100 100 100
0 0 0 0 0 46 14 100 97 67 100 100 100 100 100 100 100 99 97 100 100 100 100 100 100 100 100 100 100 100 100 100 100 100 100 100 100 100 100 100 100 100 100 100 100 100 100 100 100 100 100 100 100 100
0 3 0 0 0 8 0 19 63 80 100 100 100 100 100 100 73 85 89 100 98 100 100 100 100 100 100 100 100 100 100 100 100 100 100 100 100 100 100 100 100 100 100 100 100 100 100 100 100 100 100 100 100 100
0 0 0 0 0 2 24 3 15 84 99 100 92 100 97 100 92 97 79 100 100 100 100 100 100 100 100 100 100 100 100 100 100 100 100 100 100 100 100 100 100 100 100 100 100 100 100 100 100 100 100 100 100 100
45 15 0 0 4 4 0 30 22 5 69 100 88 77 100 95 59 100 64 100 100 100 100 100 100 100 100 100 100 100 100 100 100 100 100 100 100 100 100 100 100 100 100 100 100 100 100 100 100 100 100 100 100 100
0 7 5 1 2 4 5 18 16 5 91 100 100 100 100 96 100 90 94 100 100 100 100 100 100 100 91 69 100 100 84 100 100 100 100 100 100 100 100 100 100 100 100 100 100 100 100 100 100 100 100 100 100 100
13 10 0 0 4 36 53 77 92 74 87 89 100 100 100 100 100 67 57 100 99 100 100 100 100 100 97 69 49 36 77 99 100 100 100 100 100 100 100 100 100 100 97 99 85 86 73 64 39 83 91 92 67 77
58 0 0 2 10 40 42 90 20 79 100 100 100 100 94 100 99 89 100 100 87 47 30 30 97 100 97 100 69 34 55 81 76 100 100 88 97 100 94 85 78 100 100 100 100 100 100 100 100 100 96 32 100 91
54 47 37 99 82 70 61 32 97 100 100 100 100 100 100 100 100 99 75 100 29 87 13 15 30 10 5 5 5 22 7 5 22 5 5 8 70 99 100 86 96 99 100 98 39 54 86 74 57 81 86 91 100 96
84 7 64 17 38 6 20 89 99 100 100 99 100 100 100 100 100 100 99 64 77 83 47 5 5 5 5 3 1 0 2 5 5 5 5 5 5 5 5 5 4 3 3 4 22 49 66 67 62 96 94 97 100 66
51 56 96 60 94 65 58 35 11 8 74 100 100 45 86 100 100 100 100 100 100 100 68 22 5 5 5 5 4 4 0 3 5 8 79 75 48 5 5 5 5 2 1 3 0 0 1 1 4 5 5 52 70 38
55 65 42 92 99 63 43 5 5 6 92 89 82 100 100 100 100 100 100 100 100 99 99 88 73 61 6 7 5 5 5 4 2 4 1 85 98 75 5 5 5 0 0 0 0 0 0 0 0 1 5 5 9 93
86 79 100 75 80 62 44 14 5 13 46 62 98 100 100 89 100 100 100 100 100 100 100 100 98 73 77 62 87 19 5 3 1 5 5 5 26 40 43 6 5 5 4 0 2 66 98 93 100 93 70 49 30 88
69 50 62 68 73 100 28 20 12 22 2 1 29 76 82 59 37 97 100 92 66 86 68 73 50 5 5 5 2 3 5 5 5 5 5 5 18 5 5 6 18 25 22 14 6 5 78 41 63 99 100 100 88 83
50 92 77 82 3 94 16 75 96 79 70 73 84 72 40 74 88 70 6 56 91 78 17 14 45 5 5 5 5 5 5 5 5 4 5 5 5 5 5 5 5 5 5 24 10 41 39 16 28 50 56 76 100 100
78 83 85 92 19 11 94 100 100 56 75 100 96 43 77 100 100 100 24 5 6 12 31 54 94 61 5 5 5 5 6 43 5 5 4 4 0 0 0 5 5 5 5 36 57 86 97 94 91 96 92 100 100 100
18 2 2 6 21 18 5 99 24 37 75 66 93 79 100 99 95 96 66 33 40 22 66 79 7 5 5 5 5 5 5 5 3 0 2 0 0 0 3 5 5 12 6 57 94 96 100 100 100 100 99 95 100 100